Regional Weather Roundup
Issued by NWS

Home | Current Version | Previous Version | Text Only | Print | Product List | Glossary Off
Versions: 1 2 3 4 5 6 7 8 9 10 11 12 13 14 15 16 17 18 19 20 21 22 23 24 25 26 27 28 29 30 31 32 33 34 35 36 37 38 39 40 41 42 43 44 45 46 47 48 49 50

000
ASUS45 KCYS 310910
RWRWY

WYOMING REGIONAL WEATHER ROUNDUP
NATIONAL WEATHER SERVICE CHEYENNE WY
200 AM MST SAT JAN 31 2015

NOTE:  "FAIR" INDICATES FEW OR NO CLOUDS BELOW 12,000 FEET
WITH NO SIGNIFICANT WEATHER AND/OR OBSTRUCTIONS TO VISIBILITY.

WYZ001-311000-
YELLOWSTONE NATIONAL PARK

CITY           SKY/WX    TMP DP  RH WIND       PRES   REMARKS
LK YELLOWSTONE   N/A     -4  -9  79 CALM      30.06F
W YELLOWSTONE  NOT AVBL

$$
WYZ002>013-054>058-071-098>099-311000-
NORTHERN WYOMING

CITY           SKY/WX    TMP DP  RH WIND       PRES   REMARKS
JACKSON        FAIR       9   7  92 N5        30.06F WCI   0
CODY           FAIR      32  16  51 S10       29.96F WCI  24
GREYBULL       FOG       26  23  88 CALM      30.03F VSB 1/4
WORLAND        FAIR      19  17  92 CALM      30.01F
SHERIDAN       FAIR      26  19  74 N3        29.95F
BUFFALO        FAIR      37  12  35 SE14      29.95F WCI  28
GILLETTE       FAIR      29  22  75 S3        29.99F
HULETT           N/A    N/A N/A N/A MISG        N/A
NEWCASTLE      FAIR      30  25  80 CALM      30.06S

$$
WYZ014>020-022>026-101>103-311000-
CENTRAL WYOMING

CITY           SKY/WX    TMP DP  RH WIND       PRES   REMARKS
BIG PINEY      CLOUDY    26  21  81 NW5       30.02F WCI  20
PINEDALE       CLOUDY    25  18  74 NW5       30.01S WCI  19
DUBOIS         FAIR      25  14  63 NW14      30.00F WCI  13
LANDER         CLOUDY    31  22  69 CALM      30.00F
RIVERTON       FAIR      30  26  85 W5        30.02F WCI  25
CASPER         FAIR      28  24  85 CALM      29.99F
DOUGLAS        FAIR      28  24  85 CALM      30.02F

$$
WYZ021-027>030-104>119-311000-
SOUTHERN WYOMING

CITY           SKY/WX    TMP DP  RH WIND       PRES   REMARKS
EVANSTON       CLOUDY    31  27  85 NE7       29.99F WCI  24
KEMMERER       CLOUDY    30  28  93 NE9       30.02R WCI  22
FORT BRIDGER   CLOUDY    30  30 100 NE8       30.03S WCI  22
ROCK SPRINGS   LGT SNOW  28  25  88 N6        29.99F FOG     WCI  22
DIXON          CLOUDY    33  32  94 CALM      29.94F
RAWLINS        CLOUDY    31  22  69 NE15      29.97F WCI  20
SARATOGA       FLURRIES  32  30  93 W5        29.95F WCI  27
LARAMIE        CLOUDY    28  23  81 CALM      29.96F
CHEYENNE       CLOUDY    32  23  69 NW7       29.98F WCI  26
TORRINGTON     FAIR      32  25  75 NW5       30.01F WCI  27
PINE BLUFFS    CLOUDY    32  28  86 N8        30.00S WCI  25

$$


USA.gov is the U.S. government's official web portal to all federal, state and local government web resources and services.